This is the latest recevied weather packets stored in our database for station/object KX4O-13. If no packets are shown the sender has not sent any weather packets the latest 1 day(s).
| Time | Temp. | Humidity | Pressure | Rain* | Wind** | Luminosity | Snow |
|---|---|---|---|---|---|---|---|
| 1778027454 | 23.33° C | 37% | 1009.5 hPa | 0 mm | 2.24 m/s, 188° | 0 W/m² | - |
| 1778027152 | 23.33° C | 37% | 1009.5 hPa | 0 mm | 2.24 m/s, 175° | 0 W/m² | - |
| 1778026852 | 23.33° C | 37% | 1009.5 hPa | 0 mm | 2.24 m/s, 183° | 0 W/m² | - |
| 1778026552 | 23.89° C | 36% | 1009.4 hPa | 0 mm | 2.68 m/s, 188° | 0 W/m² | - |
| 1778026252 | 23.89° C | 35% | 1009.3 hPa | 0 mm | 2.68 m/s, 196° | 0 W/m² | - |
| 1778025952 | 23.89° C | 35% | 1009.3 hPa | 0 mm | 2.68 m/s, 190° | 5 W/m² | - |
| 1778025652 | 23.89° C | 35% | 1009.2 hPa | 0 mm | 2.24 m/s, 193° | 11 W/m² | - |
| 1778025352 | 23.89° C | 35% | 1009.1 hPa | 0 mm | 2.24 m/s, 209° | 33 W/m² | - |
| 1778025054 | 23.89° C | 35% | 1009.1 hPa | 0 mm | 2.24 m/s, 192° | 42 W/m² | - |
| 1778024752 | 23.89° C | 35% | 1009.1 hPa | 0 mm | 1.79 m/s, 200° | 26 W/m² | - |
| 1778024452 | 24.44° C | 33% | 1009 hPa | 0 mm | 2.24 m/s, 228° | 21 W/m² | - |
| 1778024152 | 24.44° C | 33% | 1008.9 hPa | 0 mm | 2.24 m/s, 215° | 18 W/m² | - |
| 1778023852 | 24.44° C | 33% | 1009 hPa | 0 mm | 2.24 m/s, 179° | 18 W/m² | - |
| 1778023552 | 24.44° C | 33% | 1009 hPa | 0 mm | 2.68 m/s, 201° | 14 W/m² | - |
| 1778023252 | 25° C | 32% | 1009 hPa | 0 mm | 2.68 m/s, 232° | 14 W/m² | - |
| 1778022952 | 25° C | 32% | 1009.1 hPa | 0 mm | 2.24 m/s, 188° | 18 W/m² | - |
| 1778022654 | 25° C | 31% | 1009.1 hPa | 0 mm | 1.79 m/s, 196° | 23 W/m² | - |
| 1778022352 | 25.56° C | 31% | 1009.1 hPa | 0 mm | 2.24 m/s, 212° | 37 W/m² | - |
| 1778022052 | 25.56° C | 30% | 1009.2 hPa | 0 mm | 2.68 m/s, 215° | 44 W/m² | - |
| 1778021752 | 25.56° C | 29% | 1009.2 hPa | 0 mm | 2.24 m/s, 169° | 79 W/m² | - |
| 1778021452 | 26.11° C | 29% | 1009.2 hPa | 0 mm | 2.68 m/s, 211° | 74 W/m² | - |
| 1778021152 | 26.11° C | 28% | 1009.2 hPa | 0 mm | 2.68 m/s, 216° | 111 W/m² | - |
| 1778020852 | 26.11° C | 27% | 1009.2 hPa | 0 mm | 3.13 m/s, 193° | 167 W/m² | - |
| 1778020552 | 26.11° C | 26% | 1009.3 hPa | 0 mm | 3.58 m/s, 205° | 285 W/m² | - |
| 1778020254 | 26.11° C | 25% | 1009.3 hPa | 0 mm | 3.58 m/s, 175° | 192 W/m² | - |
* Rain latest hour (hover to see other rain measurements)
** Current wind speed in m/s (hover to see current wind gust speed)